Moab, UT

6:22 PM MST on December 06, 2019 (GMT -0700)
Canyonlands

Weather History for KCNY - June, 2019

Change the Weather History Date:

Sunday, June 2, 2019

  Actual Average Record
Temperature  
Mean Temperature 71 °F 68 °F  
Max Temperature 87 °F 85 °F 98 °F (1931)
Min Temperature 54 °F 51 °F 38 °F (1988)
Degree Days  
Heating Degree Days 0 2  
Month to date heating degree days 0 4  
Since 1 June heating degree days 0 4  
Since 1 July heating degree days 5803 5564  
Cooling Degree Days 6 5  
Month to date cooling degree days 14 10  
Year to date cooling degree days 29 74  
Since 1 June cooling degree days 14 10  
Growing Degree Days 20 (Base 50)    
Moisture  
Dew Point 31 °F    
Average Humidity 28    
Maximum Humidity 43    
Minimum Humidity 12    
Precipitation  
Precipitation 0.00 in 0.02 in 0.80 in (1943)
Month to date precipitation 0.00 0.04  
Year to date precipitation 5.98 3.24  
Sea Level Pressure  
Sea Level Pressure 29.72 in    
Wind  
Wind Speed 5 mph (SW)    
Max Wind Speed 20 mph    
Max Gust Speed 37 mph    
Visibility 10 miles    
Events      
T = Trace of Precipitation, MM = Missing Value Source: NWS Daily Summary

Daily Weather History Graph

Daily Weather History Graph

Search for Another Location

Airport or City:

Astronomy

Jun. 02, 2019 Rise Set
Actual Time 5:55 AM MDT 8:38 PM MDT
Civil Twilight 5:24 AM MDT 9:10 PM MDT
Nautical Twilight 4:45 AM MDT 9:49 PM MDT
Astronomical Twilight 4:00 AM MDT 10:33 PM MDT
Moon 5:36 AM MDT (6/2) 8:02 PM MDT (6/2)
Length of Visible Light 15h 45m
Length of Day
14h 43m
Waning Crescent, 1% of the Moon is Illuminated
Jun 2
Waning Crescent
Jun 3
New
Jun 10
First Quarter
Jun 17
Full
Jun 25
Last Quarter

Hourly Weather History & Observations

Time (MDT) Temp. Dew Point Humidity Pressure Visibility Wind Dir Wind Speed Gust Speed Precip Events Conditions
12:53 AM 60.1 °F 30.9 °F 33% 29.72 in 10.0 mi Variable 3.5 mph - N/A   Clear
1:53 AM 55.0 °F 33.1 °F 43% 29.72 in 9.0 mi SW 4.6 mph - N/A   Clear
2:53 AM 57.0 °F 32.0 °F 39% 29.71 in 10.0 mi Calm Calm - N/A   Clear
3:53 AM 60.1 °F 33.1 °F 36% 29.70 in 10.0 mi Variable 3.5 mph - N/A   Clear
4:53 AM 62.1 °F 30.9 °F 31% 29.71 in 10.0 mi Calm Calm - N/A   Clear
5:53 AM 63.0 °F 30.0 °F 29% 29.74 in 10.0 mi West 8.1 mph - N/A   Clear
6:53 AM 64.0 °F 33.1 °F 31% 29.75 in 10.0 mi NNW 4.6 mph - N/A   Clear
7:53 AM 68.0 °F 34.0 °F 28% 29.76 in 10.0 mi ESE 3.5 mph - N/A   Clear
8:53 AM 72.0 °F 32.0 °F 23% 29.78 in 10.0 mi Calm Calm - N/A   Partly Cloudy
9:53 AM 75.0 °F 32.0 °F 21% 29.79 in 10.0 mi SW 3.5 mph - N/A   Clear
10:53 AM 77.0 °F 30.0 °F 18% 29.79 in 10.0 mi Calm Calm - N/A   Partly Cloudy
11:53 AM 81.0 °F 30.9 °F 16% 29.78 in 10.0 mi Calm Calm - N/A   Clear
12:53 PM 82.0 °F 30.0 °F 15% 29.75 in 10.0 mi SSE 10.4 mph - N/A   Clear
1:53 PM 82.9 °F 30.9 °F 15% 29.75 in 10.0 mi SSW 9.2 mph - N/A   Partly Cloudy
2:53 PM 84.0 °F 30.9 °F 15% 29.72 in 10.0 mi Variable 6.9 mph - N/A   Partly Cloudy
3:53 PM 84.9 °F 30.0 °F 14% 29.69 in 10.0 mi WSW 12.7 mph 18.4 mph N/A   Partly Cloudy
4:53 PM 82.9 °F 28.0 °F 14% 29.68 in 10.0 mi South 4.6 mph - N/A   Clear
5:53 PM 84.0 °F 28.0 °F 13% 29.65 in 10.0 mi Variable 5.8 mph 18.4 mph N/A   Partly Cloudy
6:53 PM 84.0 °F 26.1 °F 12% 29.65 in 10.0 mi SW 9.2 mph - N/A   Clear
7:53 PM 82.0 °F 27.0 °F 13% 29.65 in 10.0 mi West 11.5 mph - N/A   Clear
8:53 PM 75.0 °F 27.0 °F 17% 29.66 in 10.0 mi West 9.2 mph - N/A   Clear
9:53 PM 69.1 °F 30.9 °F 24% 29.69 in 10.0 mi SSW 4.6 mph - N/A   Clear
10:53 PM 72.0 °F 28.9 °F 20% 29.70 in 10.0 mi Calm Calm - N/A   Scattered Clouds
11:53 PM 69.1 °F 33.1 °F 26% 29.70 in 10.0 mi West 6.9 mph - N/A   Clear